Mt. Lincoln Summit Weather observations

Data are for 10 minute period ending at time listed.
 Day   Time   Solar   Ave.   Ave.  Ave.  Vector    Max.   Stn.  
  of    of     Rad.   Air    Rel.  Wind   Wind     Wind   Baro.  
Year   Day            Temp.  Hum.  Speed  Dir.     Gust   Pres. 
2016   (PST)   W/m2    F      %     mph   deg.      mph    mb    
-----------------------------------------------------------------
 176   13:40  999.0    60   73.0     1    237.2     1.2   590.00
 176   13:50  999.0    60   72.9     1    245.8     1.4   590.90
 176   14:00  999.0    61   72.5     1    249.3     1.5   589.80
 176   14:10  999.0    60   72.8     1    247.2     1.5   588.40
 176   14:20  999.0    61   72.8     1    242.5     1.6   593.10
 176   14:30  999.0    61   72.9     1    238.2     1.4   593.00
 176   14:40  999.0    61   72.3     1    265.6     1.4   591.60
 176   14:50  999.0    60   72.5     1    244.9     1.6   591.50
 176   15:00  999.0    60   72.7     1    248.9     1.2   593.00
 176   15:10  999.0    61   72.9     1    247.3     1.2   590.70
 176   15:20  999.0    60   72.9     0    270.1     1.3   591.80
 176   15:30  999.0    61   73.0     1    254.4     1.5   588.60
 176   15:40  999.0    61   72.9     1    249.8     1.4   588.70
 176   15:50  999.0    62   72.8     1    248.6     1.2   591.40
 176   16:00  999.0    61   72.5     1    272.3     1.2   592.30
 176   16:10  999.0    61   72.8     0    254.6     1.0   588.70
 176   16:20  999.0    62   72.3     0    260.0     1.5   588.30
 176   16:30  999.0    61   72.4     0    269.8     1.0   588.20
 176   16:40  999.0    60   72.8     0    259.8     1.0   585.30
 176   16:50  999.0    60   72.9     0    275.5     0.8   586.40
 176   17:00  999.0    59   73.0     0    268.3     1.0   589.40
 176   17:10  999.0    59   73.0     0    273.8     0.8   585.30
 176   17:20  999.0    59   73.1     0    269.1     0.8   585.20
 176   17:30  999.0    59   72.9     0    269.2     0.8   584.20
 176   17:40  999.0    58   72.8     0    255.5     1.0   586.80
 176   17:50  999.0    58   72.9     0    267.1     0.7   582.60
 176   18:00  999.0    58   72.9     0    276.3     0.8   583.40
 176   18:10  999.0    58   72.8     0    260.4     0.8   583.00
 176   18:20  999.0    57   72.7     0    273.5     0.8   584.30
 176   18:30  999.0    57   72.7     0    280.6     0.8   581.40
 176   18:40  999.0    57   72.7     0    263.4     0.8   581.80
 176   18:50  999.0    56   72.7     0    280.3     0.8   577.80
 176   19:00  999.0    56   72.6     0    290.9     0.7   579.40
 176   19:10  999.0    55   72.5     0    274.8     0.8   578.60
 176   19:20  999.0    55   72.3     0    275.5     0.7   578.80
 176   19:30  999.0    55   72.0     0    268.0     0.8   579.50
 176   19:40  999.0    54   72.0     0    254.4     0.8   575.80
 176   19:50  999.0    53   72.3     0    260.8     0.7   575.50
 176   20:00  999.0    53   72.4     0    262.7     0.7   575.20
 176   20:10  999.0    53   72.5     0    266.6     0.7   574.00
 176   20:20  999.0    53   72.7     0    276.5     0.6   576.20
 176   20:30  999.0    53   72.7     0    303.5     0.5   574.70
 176   20:40  999.0    53   72.7     0    323.9     0.5   574.90
 176   20:50  999.0    54   73.2     0     40.7     0.5   574.40
 176   21:00  999.0    56   73.5     0     61.7     0.6   574.30
 176   21:10  999.0    56   73.0     0     62.9     0.8   572.70
 176   21:20  999.0    55   72.8     0     63.7     0.8   572.70
 176   21:30  999.0    55   72.6     0     63.7     0.8   572.80
 176   21:40  999.0    54   72.6     0     68.6     0.8   569.20
 176   21:50  999.0    54   72.6     0     76.2     0.8   571.20
 176   22:00  999.0    54   72.5     0     73.4     0.8   568.80
 176   22:10  999.0    53   72.2     0     76.3     0.8   567.40
 176   22:20  999.0    52   72.2     0     79.5     0.8   569.30
 176   22:30  999.0    52   72.2     0     82.1     0.8   567.30
 176   22:40  999.0    51   72.3     0     87.5     0.9   565.90
 176   22:50  999.0    51   72.5     1     84.4     0.9   565.60
 176   23:00  999.0    51   72.5     1     82.2     0.8   567.50
 176   23:10  999.0    51   72.4     0     89.1     0.9   564.10
 176   23:20  999.0    50   72.4     0     88.7     0.9   567.60
 176   23:30  999.0    50   72.4     0     84.6     0.8   565.90
 176   23:40  999.0    50   72.2     0     88.0     0.8   563.90
 176   23:50  999.0    49   72.2     0     85.6     0.8   566.90
 177    0:00  999.0    49   72.2     0     88.2     0.8   570.10
 177    0:10  999.0    49   72.2     0     85.5     0.8   568.20
 177    0:20  999.0    49   72.2     0     87.6     0.8   567.30
 177    0:30  999.0    48   72.2     1     88.1     0.9   564.40
 177    0:40  999.0    48   72.2     1     92.9     0.8   565.60
 177    0:50  999.0    48   72.2     1     89.7     0.8   562.20
 177    1:00  999.0    47   72.3     1     93.1     0.9   559.60
 177    1:10  999.0    47   72.4     0     90.7     0.8   562.10
 177    1:20  999.0    47   72.4     0     89.1     0.8   562.70
 177    1:30  999.0    47   72.4     1     93.6     0.8   560.50
 177    1:40  999.0    47   72.5     0     93.1     0.9   560.40
 177    1:50  999.0    47   72.5     1     95.8     0.9   561.80
 177    2:00  999.0    47   72.6     1     94.5     0.9   561.70
 177    2:10  999.0    47   72.6     1     95.9     1.0   562.70
 177    2:20  999.0    47   72.5     1     97.0     2.0   561.60
 177    2:30  999.0    46   72.6     1     97.0     1.9   567.30
 177    2:40  999.0    46   72.7     1     97.8     1.3   564.50
 177    2:50  999.0    46   72.7     1     97.2     0.8   564.00
 177    3:00  999.0    46   72.7     1    100.4     1.0   564.70
 177    3:10  999.0    46   72.7     1     98.3     1.0   562.50
 177    3:20  999.0    46   72.6     1     98.1     1.3   560.90
 177    3:30  999.0    46   72.6     1     98.5     1.3   560.20
 177    3:40  999.0    46   72.6     1     99.9     1.5   565.90
 177    3:50  999.0    46   72.7     1     99.7     2.0   563.10
 177    4:00  999.0    46   72.8     1     98.6     1.9   563.10
 177    4:10  999.0    46   72.7     1     98.3     1.1   561.30
 177    4:20  999.0    46   72.7     1    101.1     1.0   558.00
 177    4:30  999.0    46   72.9     1    104.6     1.1   556.30
 177    4:40  999.0    46   73.0     1    104.1     0.9   558.10
 177    4:50  999.0    47   72.9     0    106.3     0.9   555.00
 177    5:00  999.0    49   72.1     0    105.7     0.8   556.60
 177    5:10  999.0    51   70.8     0    108.1     0.8   559.50
 177    5:20  999.0    52   69.4     0    107.1     0.8   561.60
 177    5:30  999.0    54   68.3     0    106.4     0.8   562.70
 177    5:40  999.0    55   67.2     0    105.3     0.8   562.10
 177    5:50  999.0    56   66.4     0    106.7     0.8   567.30
 177    6:00  999.0    57   65.8     0    110.9     0.8   563.70
 177    6:10  999.0    58   65.2     0    108.6     0.8   561.40
 177    6:20  999.0    59   64.7     0    112.4     0.8   563.80
 177    6:30  999.0    60   64.1     0    112.2     0.8   559.90
 177    6:40  999.0    61   63.7     0    116.2     0.8   558.50
 177    6:50  999.0    62   63.3     0    113.2     0.8   561.50
 177    7:00  999.0    62   63.1     0    109.4     0.8   560.60
 177    7:10  999.0    63   62.8     0    110.0     0.8   563.10
 177    7:20  999.0    63   62.5     0    104.3     0.8   568.40
 177    7:30  999.0    63   62.2     0    103.8     0.8   565.20
 177    7:40  999.0    63   62.3     0    104.9     0.8   566.10
 177    7:50  999.0    63   62.4     0    103.9     0.8   565.50
 177    8:00  999.0    64   62.7     0    103.3     0.8   567.40
 177    8:10  999.0    64   62.7     0    103.2     0.8   565.10
 177    8:20  999.0    65   62.6     0    104.9     0.7   571.60
 177    8:30  999.0    65   62.6     0    104.1     0.8   573.80
 177    8:40  999.0    66   62.8     0    104.9     0.8   573.10
 177    8:50  999.0    65   63.0     0    102.8     0.8   573.50
 177    9:00  999.0    66   63.3     0    111.0     0.8   578.70
 177    9:10  999.0    66   63.3     0    108.1     0.9   581.00
 177    9:20  999.0    65   63.9     0    102.9     0.9   582.40
 177    9:30  999.0    64   65.0     0    104.1     1.0   583.00
 177    9:40  999.0    65   65.5     0     99.9     0.9   582.40
 177    9:50  999.0    65   66.2     0    105.6     1.0   585.70
 177   10:00  999.0    67   65.9     0    107.2     0.9   584.90
 177   10:10  999.0    66   66.3     0    103.3     0.9   583.60
 177   10:20  999.0    67   66.1     0    100.0     0.8   584.60
 177   10:30  999.0    66   67.0     0     92.7     0.8   582.80
 177   10:40  999.0    66   67.6     0     79.5     1.0   585.40
 177   10:50  999.0    66   68.3     0     85.4     0.8   590.10
 177   11:00  999.0    67   68.7     0    135.7     0.7   586.90
 177   11:10  999.0    69   67.9     0     83.9     0.8   589.00
 177   11:20  999.0    70   67.9     0    112.1     0.8   587.50
 177   11:30  999.0    72   67.4     0    120.1     0.7   587.00
 177   11:40  999.0    73   66.6     0    204.5     1.2   591.50
 177   11:50  999.0    73   66.9     0    231.8     1.0   590.50
 177   12:00  999.0    69   68.3     0    296.2     0.8   590.70
 177   12:10  999.0    67   70.1     0    269.5     0.8   593.10
 177   12:20  999.0    68   71.0     0    310.8     0.8   595.30
 177   12:30  999.0    68   71.3     0    238.2     1.1   593.20
 177   12:40  999.0    68   70.9     0    229.3     1.2   594.50
 177   12:50  999.0    67   71.4     0    231.0     1.2   594.90
 177   13:00  999.0    67   71.9     0    262.4     1.0   595.20
 177   13:10  999.0    67   72.5     0    259.4     0.8   595.60
 177   13:20  999.0    69   72.2     0    289.5     1.0   597.80
 177   13:30  999.0    68   72.1     0    238.5     1.2   599.70

Return to Mt. Lincoln graphs page.


Western Regional Climate Center,wrcc@dri.edu